Regional Weather Roundup
Issued by NWS

Home | Current Version | Previous Version | Text Only | Print | Product List | Glossary Off
Versions: 1 2 3 4 5 6 7 8 9 10 11 12 13 14 15 16 17 18 19 20 21 22 23 24 25 26 27 28 29 30 31 32 33 34 35 36 37 38 39 40 41 42 43 44 45 46 47 48 49 50

000
ASUS45 KTFX 260510
RWRMT
MONTANA REGIONAL WEATHER ROUNDUP
NATIONAL WEATHER SERVICE GREAT FALLS MT
1100 PM MDT SUN SEP 25 2016

NOTE: "FAIR" INDICATES FEW OR NO CLOUDS BELOW 12000 FEET WITH NO
SIGNIFICANT WEATHER AND/OR OBSTRUCTIONS TO VISIBILITY.

MTZ001>007-043-260600-
WEST OF THE DIVIDE

CITY           SKY/WX    TMP DP  RH WIND       PRES   REMARKS
KALISPELL      CLOUDY    51  44  77 W3        30.40F
MISSOULA       CLEAR     49  43  80 N7        30.42F
BUTTE          CLEAR     49  38  65 CALM      30.47F
MULLAN PASS    CLEAR     51  37  58 SW3       30.50S
ANACONDA         N/A     48  37  66 SW6       30.45F
DEER LODGE       N/A     46  39  76 SE3       30.47R
EUREKA           N/A     54  43  66 CALM      30.40S
HAMILTON         N/A     52  43  71 S8        30.43F
LIBBY            N/A     48  45  87 CALM      30.40S
RONAN            N/A     47  40  76 CALM      30.42S
$$

MTZ008-052>055-260600-
SOUTHWEST MONTANA

CITY           SKY/WX    TMP DP  RH WIND       PRES   REMARKS
BOZEMAN        PTCLDY    50  41  71 W6        30.42F
W YELLOWSTONE    N/A     46  32  57 CALM      30.53R
ENNIS          CLEAR     48  39  71 SE5       30.50S
THREE FORKS      N/A     46  26  46 CALM      30.36S
TWIN BRIDGES     N/A     50  38  63 NE2       30.37F
$$

MTZ009-010-012-014-046-048-049-054-260600-
EAST SLOPES AND CENTRAL MONTANA

CITY           SKY/WX    TMP DP  RH WIND       PRES   REMARKS
CUT BANK       CLEAR     49  40  71 W12       30.30F
GREAT FALLS    CLOUDY    48  41  76 SW10      30.33F
MALMSTROM AFB  CLEAR     50  42  74 SW10      30.33S
HELENA         CLEAR     58  40  51 W5        30.38S
CHOTEAU          N/A     54  41  62 SW5       30.34S
$$

MTZ011-013-016-021-045-047-050-051-260600-
NORTH CENTRAL MONTANA

CITY           SKY/WX    TMP DP  RH WIND       PRES   REMARKS
HAVRE          CLOUDY    47  42  83 W6        30.26R
LEWISTOWN      CLOUDY    54  43  66 W8        30.34R
N BAR RANCH      N/A     46  39  76 NW6       30.35S
CHINOOK          N/A     46  41  81 W3        30.25R
$$

MTZ017>020-022>027-061-062-260600-
NORTHEAST MONTANA

CITY           SKY/WX    TMP DP  RH WIND       PRES   REMARKS
GLASGOW        CLEAR     49  39  68 W3        30.22S
JORDAN           N/A     42  39  89 NW3       30.25S
SIDNEY         CLEAR     47  39  74 CALM      30.22S
WOLF POINT     CLEAR     46  40  79 SW3       30.23S
PLENTYWOOD       N/A     46  34  61 W5        30.20F
POPLAR           N/A     48  39  71 CALM      30.23S
$$

MTZ028>42-056>058-260600-
SOUTHCENTRAL AND SOUTHEAST MONTANA

CITY           SKY/WX    TMP DP  RH WIND       PRES   REMARKS
BAKER          CLEAR     45  39  79 CALM      30.27F
BILLINGS       PTCLDY    58  41  53 SW14      30.33S
LIVINGSTON     CLEAR     56  39  53 W13       30.39S
MILES CITY     CLEAR     49  41  74 W8        30.27S
BIG TIMBER     CLEAR     61  39  44 W22G33    30.37R
FORSYTH          N/A     54  39  58 CALM      30.28S
LAUREL           N/A     55  40  57 S5        30.29S
ROUNDUP          N/A     52  37  56 SW6       30.19S
$$

REGIONAL REPORTS...DAKOTAS

CITY           SKY/WX    TMP DP  RH WIND       PRES   REMARKS
WILLISTON      CLEAR     42  34  73 S3        30.20S
MINOT          CLEAR     51  34  52 W12       30.12S
DICKINSON      CLEAR     41  34  76 W7        30.21S
CROSBY           N/A     45  36  70 W9        30.19S
WATFORD CITY     N/A     39  36  87 CALM      30.21F
BISMARCK       CLEAR     46  35  65 W7        30.18S
GRAND FORKS    CLOUDY    53  40  61 NW16      29.94S
FARGO          CLOUDY    57  39  51 W17       29.97F
BUFFALO SD       N/A     46  37  71 W8        30.21F
RAPID CITY     CLEAR     45  34  65 W6        30.32S
$$

REGIONAL REPORTS...WYOMING/IDAHO/WASHINGTON

CITY           SKY/WX    TMP DP  RH WIND       PRES   REMARKS
GILLETTE       CLEAR     43  39  86 S3        30.36S
SHERIDAN       CLEAR     43  39  86 S5        30.35R
BUFFALO WY     CLEAR     47  39  74 CALM      30.38F
CODY           CLEAR     45  43  93 CALM      30.42F
YELLOWSTONE LA   N/A     35  33  92 CALM      30.59R
IDAHO FALLS    CLEAR     49  41  74 CALM      30.47S
SALMON         CLEAR     46  37  71 S3        30.44R
BOISE          CLEAR     58  34  40 CALM      30.36F
SPOKANE        PTCLDY    62  36  37 SE6       30.35F
$$

REGIONAL REPORTS...ALBERTA

CITY           SKY/WX    TMP DP  RH WIND       PRES   REMARKS
EDMONTON       PTCLDY    46  36  66 SW6       30.17R
CALGARY        CLEAR     57  37  47 W9        30.23S
LETHBRIDGE     CLEAR     57  43  58 W18G28    30.25R
MEDICINE HAT   CLEAR     45  37  76 SW6       30.22S
WATERTON GATE    N/A     55  39  54 SW22G32     N/A
CARDSTON         N/A     55  39  54 W12G20      N/A
MILK RIVER       N/A     48  41  76 NW13        N/A
ONEFOUR          N/A     45  36  70 SW5         N/A
$$

REGIONAL REPORTS...SASKATCHEWAN

CITY           SKY/WX    TMP DP  RH WIND       PRES   REMARKS
SWIFT CURRENT  CLEAR     45  34  65 W8        30.20F
REGINA         CLEAR     39  32  75 W5        30.16S
SASKATOON      CLEAR     37  32  81 W5        30.16S
CYPRESS HILLS    N/A     43  28  56 NW2         N/A
VAL MARIE        N/A     37  34  87 NW1         N/A
ROCKGLEN         N/A     45  30  57 CALM        N/A
$$



USA.gov is the U.S. government's official web portal to all federal, state and local government web resources and services.